User: anonymous   Login
Location: The D'Auria's Ocala Star Observatory
(29.0276°N, 82.1742°W)
Time: 20:18:34
(UTC-04:00)
Language:

Abrixas rocket - Orbit

View from above orbital plane
View from above orbital plane
View from above satellite
View from above satellite

Ground track
Ground track

The orbit data is extracted from the following two-line orbital elements,

1 25723U 99022C   17175.30197377 +.00004966 +00000-0 +81519-4 0  9992
2 25723 048.4159 129.4667 0009810 067.3991 292.7991 15.54171029007281
Epoch (UTC): 24 June 2017 07:14:50
Eccentricity: 0.0009810
inclination: 48.4159°
perigee height: 398 km
apogee height: 411 km
right ascension of ascending node: 129.4667°
argument of perigee: 67.3991°
revolutions per day: 15.54171029
mean anomaly at epoch: 292.7991°
orbit number at epoch: 728

The dashed part of the orbit path shows where the satellite is in the earth's shadow,  

DLR